Time,TemperatureF,DewpointF,PressureIn,WindDirection,WindDirectionDegrees,WindSpeedMPH,WindSpeedGustMPH,Humidity,HourlyPrecipIn,Conditions,Clouds,dailyrainin,SoftwareType,DateUTC
2013-07-24 00:02:00,54.0,-99.9,30.00,ENE,57,2.0,6.0,-999,-99.99,,,-99.99,,2013-07-24 07:02:00,
2013-07-24 00:43:00,53.0,-99.9,30.00,NNE,29,2.0,4.0,-999,-99.99,,,-99.99,,2013-07-24 07:43:00,
2013-07-24 01:43:00,53.0,-99.9,29.99,ENE,70,2.0,3.0,-999,-99.99,,,-99.99,,2013-07-24 08:43:00,
2013-07-24 02:02:00,53.0,-99.9,29.99,East,83,3.0,5.0,-999,-99.99,,,-99.99,,2013-07-24 09:02:00,
2013-07-24 02:22:00,52.0,-99.9,29.98,ESE,104,3.0,4.0,-999,-99.99,,,-99.99,,2013-07-24 09:22:00,
2013-07-24 02:43:00,53.0,-99.9,29.98,ESE,107,2.0,4.0,-999,-99.99,,,-99.99,,2013-07-24 09:43:00,
2013-07-24 03:22:00,53.0,-99.9,29.96,ENE,61,4.0,6.0,-999,-99.99,,,-99.99,,2013-07-24 10:22:00,
2013-07-24 03:43:00,54.0,-99.9,29.96,NE,39,2.0,3.0,-999,-99.99,,,-99.99,,2013-07-24 10:43:00,
2013-07-24 04:02:00,53.0,-99.9,29.96,East,98,1.0,2.0,-999,-99.99,,,-99.99,,2013-07-24 11:02:00,
2013-07-24 04:32:00,52.0,-99.9,29.95,NNE,17,0.0,1.0,-999,-99.99,,,-99.99,,2013-07-24 11:32:00,
2013-07-24 04:44:00,52.0,-99.9,29.95,East,81,1.0,2.0,-999,-99.99,,,-99.99,,2013-07-24 11:44:00,
2013-07-24 05:42:00,52.0,-99.9,29.96,ENE,72,2.0,3.0,-999,-99.99,,,-99.99,,2013-07-24 12:42:00,
2013-07-24 06:02:00,51.0,-99.9,29.96,East,97,4.0,4.0,-999,-99.99,,,-99.99,,2013-07-24 13:02:00,
2013-07-24 06:32:00,51.0,-99.9,29.98,East,83,2.0,3.0,-999,-99.99,,,-99.99,,2013-07-24 13:32:00,
2013-07-24 06:43:00,51.0,-99.9,29.98,East,96,4.0,5.0,-999,-99.99,,,-99.99,,2013-07-24 13:43:00,
2013-07-24 07:02:00,51.0,-99.9,29.98,East,91,4.0,5.0,-999,-99.99,,,-99.99,,2013-07-24 14:02:00,
2013-07-24 07:43:00,52.0,-99.9,29.98,East,82,2.0,3.0,-999,-99.99,,,-99.99,,2013-07-24 14:43:00,
2013-07-24 08:03:00,52.0,-99.9,29.98,North,-999,-999.0,2.0,-999,-99.99,,,-99.99,,2013-07-24 15:03:00,
2013-07-24 08:12:00,53.0,-99.9,29.99,SSE,155,-999.0,1.0,-999,-99.99,,,-99.99,,2013-07-24 15:12:00,
2013-07-24 08:22:00,53.0,-99.9,29.98,SW,224,0.0,1.0,-999,-99.99,,,-99.99,,2013-07-24 15:22:00,
2013-07-24 08:33:00,53.0,-99.9,29.99,SW,214,3.0,3.0,-999,-99.99,,,-99.99,,2013-07-24 15:33:00,
2013-07-24 08:43:00,53.0,-99.9,30.00,SW,217,3.0,4.0,-999,-99.99,,,-99.99,,2013-07-24 15:43:00,
2013-07-24 08:53:00,53.0,-99.9,30.00,SSW,194,3.0,4.0,-999,-99.99,,,-99.99,,2013-07-24 15:53:00,
2013-07-24 09:02:00,53.0,-99.9,30.01,SSW,195,2.0,3.0,-999,-99.99,,,-99.99,,2013-07-24 16:02:00,
2013-07-24 09:12:00,54.0,-99.9,30.01,South,190,4.0,6.0,-999,-99.99,,,-99.99,,2013-07-24 16:12:00,
2013-07-24 09:33:00,54.0,-99.9,30.01,SSW,208,5.0,10.0,-999,-99.99,,,-99.99,,2013-07-24 16:33:00,
2013-07-24 09:43:00,53.0,-99.9,30.01,SSW,196,5.0,9.0,-999,-99.99,,,-99.99,,2013-07-24 16:43:00,
2013-07-24 09:53:00,53.0,-99.9,30.02,SSW,193,6.0,9.0,-999,-99.99,,,-99.99,,2013-07-24 16:53:00,
2013-07-24 10:03:00,53.0,-99.9,30.02,South,190,5.0,7.0,-999,-99.99,,,-99.99,,2013-07-24 17:03:00,
2013-07-24 10:12:00,53.0,-99.9,30.01,South,175,5.0,8.0,-999,-99.99,,,-99.99,,2013-07-24 17:12:00,
2013-07-24 10:33:00,53.0,-99.9,30.02,South,191,6.0,7.0,-999,-99.99,,,-99.99,,2013-07-24 17:33:00,
2013-07-24 10:43:00,53.0,-99.9,30.02,South,181,6.0,9.0,-999,-99.99,,,-99.99,,2013-07-24 17:43:00,
2013-07-24 10:53:00,53.0,-99.9,30.02,South,188,6.0,9.0,-999,-99.99,,,-99.99,,2013-07-24 17:53:00,
2013-07-24 11:03:00,53.0,-99.9,30.02,South,187,7.0,8.0,-999,-99.99,,,-99.99,,2013-07-24 18:03:00,
2013-07-24 11:12:00,53.0,-99.9,30.02,South,172,4.0,8.0,-999,-99.99,,,-99.99,,2013-07-24 18:12:00,
2013-07-24 11:33:00,53.0,-99.9,30.03,South,169,6.0,9.0,-999,-99.99,,,-99.99,,2013-07-24 18:33:00,
2013-07-24 11:43:00,53.0,-99.9,30.02,South,174,6.0,8.0,-999,-99.99,,,-99.99,,2013-07-24 18:43:00,
2013-07-24 11:52:00,53.0,-99.9,30.02,SSE,164,6.0,8.0,-999,-99.99,,,-99.99,,2013-07-24 18:52:00,
2013-07-24 12:22:00,54.0,-99.9,30.03,SSW,195,4.0,5.0,-999,-99.99,,,-99.99,,2013-07-24 19:22:00,
2013-07-24 12:43:00,54.0,-99.9,30.02,SW,225,3.0,4.0,-999,-99.99,,,-99.99,,2013-07-24 19:43:00,
2013-07-24 12:53:00,54.0,-99.9,30.02,SW,219,5.0,6.0,-999,-99.99,,,-99.99,,2013-07-24 19:53:00,
2013-07-24 13:02:00,54.0,-99.9,30.01,SW,229,5.0,7.0,-999,-99.99,,,-99.99,,2013-07-24 20:02:00,
2013-07-24 13:13:00,54.0,-99.9,30.01,SW,234,5.0,6.0,-999,-99.99,,,-99.99,,2013-07-24 20:13:00,
2013-07-24 13:33:00,55.0,-99.9,30.01,West,266,9.0,10.0,-999,-99.99,,,-99.99,,2013-07-24 20:33:00,
2013-07-24 13:43:00,55.0,-99.9,30.01,West,269,9.0,11.0,-999,-99.99,,,-99.99,,2013-07-24 20:43:00,
2013-07-24 13:53:00,56.0,-99.9,30.01,West,276,11.0,13.0,-999,-99.99,,,-99.99,,2013-07-24 20:53:00,
2013-07-24 14:03:00,56.0,-99.9,30.01,West,279,11.0,13.0,-999,-99.99,,,-99.99,,2013-07-24 21:03:00,
2013-07-24 14:12:00,58.0,-99.9,30.00,WNW,285,10.0,14.0,-999,-99.99,,,-99.99,,2013-07-24 21:12:00,
2013-07-24 14:44:00,58.0,-99.9,30.00,WNW,283,12.0,15.0,-999,-99.99,,,-99.99,,2013-07-24 21:44:00,
2013-07-24 15:02:00,58.0,-99.9,30.00,WNW,284,12.0,14.0,-999,-99.99,,,-99.99,,2013-07-24 22:02:00,
2013-07-24 15:43:00,59.0,-99.9,29.99,WNW,285,10.0,15.0,-999,-99.99,,,-99.99,,2013-07-24 22:43:00,
2013-07-24 16:02:00,59.0,-99.9,29.99,West,279,9.0,14.0,-999,-99.99,,,-99.99,,2013-07-24 23:02:00,
2013-07-24 17:02:00,58.0,-99.9,29.98,WNW,282,10.0,14.0,-999,-99.99,,,-99.99,,2013-07-25 00:02:00,
2013-07-24 18:03:00,56.0,-99.9,29.97,WNW,288,10.0,13.0,-999,-99.99,,,-99.99,,2013-07-25 01:03:00,
2013-07-24 18:32:00,58.0,-99.9,29.96,WNW,291,6.0,10.0,-999,-99.99,,,-99.99,,2013-07-25 01:32:00,
2013-07-24 19:02:00,57.0,-99.9,29.96,WNW,296,6.0,10.0,-999,-99.99,,,-99.99,,2013-07-25 02:02:00,
2013-07-24 19:33:00,57.0,-99.9,29.96,WNW,300,4.0,10.0,-999,-99.99,,,-99.99,,2013-07-25 02:33:00,
2013-07-24 19:43:00,56.0,-99.9,29.96,NW,312,5.0,9.0,-999,-99.99,,,-99.99,,2013-07-25 02:43:00,
2013-07-24 20:16:00,54.0,-99.9,29.96,NW,315,6.0,9.0,-999,-99.99,,,-99.99,,2013-07-25 03:16:00,
2013-07-24 20:45:00,53.0,-99.9,29.96,NW,305,2.0,7.0,-999,-99.99,,,-99.99,,2013-07-25 03:45:00,
2013-07-24 21:02:00,53.0,-99.9,29.96,NW,324,3.0,8.0,-999,-99.99,,,-99.99,,2013-07-25 04:02:00,
2013-07-24 21:22:00,53.0,-99.9,29.96,WNW,298,3.0,7.0,-999,-99.99,,,-99.99,,2013-07-25 04:22:00,
2013-07-24 21:43:00,53.0,-99.9,29.96,NW,304,2.0,6.0,-999,-99.99,,,-99.99,,2013-07-25 04:43:00,
2013-07-24 22:12:00,53.0,-99.9,29.96,North,352,2.0,5.0,-999,-99.99,,,-99.99,,2013-07-25 05:12:00,
2013-07-24 22:22:00,54.0,-99.9,29.96,NW,311,3.0,4.0,-999,-99.99,,,-99.99,,2013-07-25 05:22:00,
2013-07-24 22:43:00,53.0,-99.9,29.97,NNW,330,1.0,6.0,-999,-99.99,,,-99.99,,2013-07-25 05:43:00,
2013-07-24 23:02:00,53.0,-99.9,29.97,NW,304,4.0,7.0,-999,-99.99,,,-99.99,,2013-07-25 06:02:00,
2013-07-24 23:32:00,53.0,-99.9,29.96,SE,145,2.0,5.0,-999,-99.99,,,-99.99,,2013-07-25 06:32:00,
2013-07-24 23:42:00,53.0,-99.9,29.96,WNW,287,2.0,4.0,-999,-99.99,,,-99.99,,2013-07-25 06:42:00,